Wind_Speed
42 36 42 46 47 31 18 25 22 16 21 23 32 29 28 20 33 26 24 22 21 30 32 31 31 34 36 39 38 37 37 36 37 35 35 34 34 32 32 32 33 34 34 32
31 33 33 34 37 25 28 20 21 18 25 22 20 31 31 26 30 30 23 24 22 22 21 25 34 37 38 40 40 39 39 39 39 39 40 37 37 36 37 37 37 37 37 37
35 43 32 28 33 30 23 21 21 21 20 17 17 20 26 35 26 29 31 31 32 32 32 31 35 38 39 39 40 40 41 42 42 41 41 44 43 43 41 42 41 40 40 40
21 23 31 28 35 31 30 25 14 19 23 14 24 6 27 32 33 31 29 30 29 34 33 35 33 33 34 35 36 37 38 39 41 43 44 46 47 47 45 43 44 44 43 42
19 33 33 28 32 29 27 26 17 17 22 11 15 8 12 18 29 31 27 29 33 34 33 32 31 32 32 33 34 34 35 36 36 37 38 40 44 45 46 42 39 38 39 41
28 26 24 23 27 25 26 26 15 19 16 5 17 19 15 25 29 27 24 30 27 26 27 25 25 26 26 26 27 27 28 28 30 31 32 35 36 38 40 41 38 34 35 36
19 22 16 21 22 21 21 20 5 3 3 4 20 19 15 18 15 21 26 24 23 21 21 19 18 19 19 19 20 20 21 21 22 24 26 28 30 33 36 38 39 37 36 35
8 9 17 15 24 21 25 17 3 4 4 4 10 9 9 19 19 19 18 21 17 19 18 17 17 17 16 17 17 17 18 19 19 19 20 21 22 23 25 27 30 32 34 35
8 6 14 11 14 22 25 25 21 4 5 7 10 8 13 22 24 24 21 16 19 18 18 17 17 17 17 17 17 18 19 20 21 22 21 22 22 23 24 24 26 28 29 32
11 11 9 13 16 18 16 25 11 3 2 3 8 14 11 28 28 26 23 20 18 17 16 15 15 16 17 18 19 20 22 23 24 25 26 27 28 28 29 30 30 31 31 32
10 6 8 13 8 11 10 9 6 8 3 1 3 2 7 14 25 24 21 21 19 17 15 14 14 14 15 18 21 22 24 25 27 29 29 31 31 31 31 30 31 32 33 33
5 9 8 5 8 13 9 7 6 2 2 1 2 2 3 11 18 20 22 18 15 13 10 10 11 13 15 17 20 22 24 24 24 26 25 26 27 28 26 27 27 28 30 31
5 6 7 3 4 10 13 13 12 13 5 4 1 4 12 19 24 19 17 16 13 9 9 12 15 18 19 20 20 20 20 20 19 19 20 21 22 23 24 22 21 21 22 23
5 4 3 4 4 4 9 15 16 14 6 1 4 13 20 20 17 17 12 13 10 11 13 16 18 20 21 17 17 17 17 15 15 16 18 18 17 17 17 18 17 17 16 17
3 2 4 3 1 3 5 11 18 20 15 5 6 4 20 18 14 15 12 14 14 13 12 15 17 20 16 14 15 14 14 14 14 15 15 15 15 15 15 14 14 13 13 16
4 2 2 3 5 6 8 8 12 17 18 18 8 12 5 12 12 16 18 14 12 11 12 15 18 20 18 15 13 14 15 14 13 13 13 12 12 12 13 13 10 9 12 14
4 3 0 1 4 5 9 13 16 15 16 21 24 16 15 16 18 16 15 12 12 13 14 17 18 22 16 17 14 14 16 14 13 12 12 12 12 12 15 11 6 8 12 14
6 5 3 2 4 2 2 3 4 14 10 12 19 11 16 17 17 12 11 13 14 16 16 19 18 19 17 18 19 17 16 15 13 12 12 11 11 9 8 5 6 9 12 11
10 7 3 3 5 8 8 4 5 7 5 12 14 20 19 19 11 11 12 14 15 14 17 17 20 19 17 18 17 12 14 13 11 11 10 7 8 5 3 2 4 7 4 1
8 12 8 4 2 2 3 2 5 7 2 3 15 15 14 11 11 11 12 11 11 15 15 18 16 15 15 14 11 11 11 9 8 6 6 8 4 4 4 5 5 5 6 6
6 6 9 8 4 4 7 5 8 5 6 8 11 11 10 10 10 11 11 14 15 14 14 15 15 14 9 9 9 9 8 8 7 4 6 8 8 8 9 9 7 6 6 5
8 6 6 8 5 6 4 9 7 6 5 10 10 10 10 9 10 11 13 12 13 13 15 15 15 12 11 11 8 7 8 11 9 7 11 10 11 10 8 7 5 3 3 3
7 10 6 7 6 7 5 10 14 10 4 6 11 9 10 8 8 10 11 12 12 11 11 10 7 4 5 6 6 6 9 13 10 9 13 12 10 8 6 4 3 2 1 2
7 12 9 8 7 11 6 12 11 10 11 10 10 9 8 7 5 8 9 7 9 8 7 5 3 1 2 3 5 7 11 11 12 14 12 10 8 6 4 3 1 1 2 4
12 10 6 13 9 9 10 13 13 13 12 11 13 14 13 11 8 6 6 7 8 6 4 3 1 2 4 5 7 10 12 13 12 11 10 8 6 4 3 3 3 4 5 6
18 18 14 5 7 9 11 13 12 14 15 14 13 16 17 16 12 9 9 9 9 10 6 5 4 5 5 6 7 7 8 9 9 8 7 6 5 5 6 6 5 5 6 8
Wind_Direction
193 190 197 197 198 201 203 208 212 230 209 214 225 234 210 208 231 238 228 220 229 235 243 242 238 239 236 237 238 240 243 249 255 250 248 251 257 261 260 261 265 269 275 280
193 209 197 202 196 200 192 213 210 212 208 206 218 232 227 229 231 236 221 222 216 225 243 243 237 238 240 242 243 242 246 248 250 254 259 253 252 256 261 264 269 273 277 280
193 202 198 194 188 204 203 207 205 217 194 201 213 232 229 223 236 240 239 233 232 229 229 231 238 236 241 245 246 246 245 248 251 252 255 259 257 254 257 261 267 273 276 277
190 196 194 190 198 201 212 208 211 211 193 198 222 257 228 222 221 237 233 231 235 237 241 243 244 245 244 249 250 252 253 252 253 256 256 259 262 265 263 260 261 262 266 271
163 171 178 190 201 190 212 206 220 199 195 176 196 237 262 205 213 226 228 231 233 236 240 243 246 247 247 249 251 253 255 257 258 257 259 259 262 266 272 271 268 267 269 268
133 155 170 198 206 206 204 201 208 193 207 246 199 199 194 196 215 227 218 224 230 234 238 239 239 242 245 247 250 252 254 254 256 257 256 257 258 260 263 268 272 272 271 272
139 163 153 185 199 215 212 174 109 144 170 226 204 200 227 223 219 215 212 220 219 218 225 228 231 234 238 240 243 246 249 251 253 254 256 257 258 258 259 261 263 266 268 270
131 142 184 185 198 200 185 166 183 192 190 147 157 199 205 206 200 210 207 215 205 211 215 220 223 228 231 236 241 245 248 250 253 254 255 256 257 259 261 263 264 264 266 268
121 97 176 189 200 205 196 202 216 296 265 123 187 180 170 193 204 210 213 203 199 207 213 220 227 235 241 244 248 252 254 254 254 255 257 260 262 263 265 267 267 267 269 271
114 104 150 161 165 179 174 189 189 207 254 189 191 184 200 203 205 210 206 201 201 208 216 226 238 247 256 259 259 259 260 261 262 262 263 264 265 266 267 266 267 269 267 268
107 116 133 158 183 165 147 165 153 175 244 313 128 190 223 229 214 200 193 200 204 213 222 231 241 250 259 262 263 264 264 266 268 269 269 270 269 268 267 268 267 268 271 272
120 124 118 142 176 175 196 190 188 205 177 219 286 325 189 185 181 183 194 199 200 205 218 235 255 267 276 278 272 269 269 269 269 268 268 266 267 267 267 265 268 269 272 275
91 122 116 144 222 218 218 187 186 220 194 233 342 142 166 176 182 186 183 190 200 224 256 273 279 282 286 286 277 272 270 268 265 265 266 265 264 264 265 267 268 275 278 280
122 158 155 111 151 196 211 209 210 205 185 248 220 162 179 199 194 179 209 215 238 266 275 277 282 284 290 286 282 271 262 258 262 267 266 262 262 261 261 265 268 270 276 281
126 115 175 209 213 246 237 216 222 224 209 199 130 253 197 207 213 201 248 246 264 277 282 290 291 290 288 289 292 268 257 258 265 268 265 263 261 260 260 263 268 282 296 298
203 193 202 274 271 272 259 240 226 235 223 218 193 116 166 201 206 219 242 251 265 277 289 295 293 291 289 291 294 267 253 257 268 268 264 258 260 257 264 265 267 286 290 288
186 230 233 213 307 296 282 252 233 230 233 223 219 202 198 204 231 237 245 258 265 277 284 288 289 287 280 280 282 277 253 255 262 269 267 265 268 266 267 249 269 296 300 293
211 208 226 318 328 263 278 270 233 230 228 216 214 187 207 217 225 246 254 267 275 282 286 288 286 286 283 280 284 275 249 249 259 272 267 268 265 253 241 257 294 293 299 294
187 198 219 229 243 296 283 274 224 201 230 232 212 204 214 226 234 242 262 271 278 279 287 289 291 284 276 273 278 253 240 244 259 267 260 224 205 201 206 248 300 300 302 331
200 188 198 203 253 264 231 267 171 146 185 221 194 197 212 215 233 252 267 277 283 290 289 301 294 287 277 264 248 247 242 238 247 252 226 183 192 146 140 110 100 98 88 94
186 209 217 224 259 277 274 203 166 184 169 177 181 197 211 235 257 268 277 284 289 291 300 303 297 289 263 234 237 238 236 221 213 200 164 154 139 131 124 115 112 109 110 101
200 197 202 212 227 249 232 195 202 212 230 199 203 218 234 249 264 274 276 275 281 292 304 307 291 264 245 226 228 243 220 194 181 162 159 150 142 134 126 122 121 126 112 84
216 207 203 206 235 248 274 209 219 217 230 246 211 219 233 248 262 272 277 280 272 282 303 322 334 246 198 216 234 234 203 184 194 173 156 148 142 138 134 144 155 133 89 27
256 229 225 229 250 255 241 228 237 244 250 253 249 240 237 258 280 311 294 282 276 288 297 312 340 64 148 183 179 175 166 167 157 150 152 152 153 159 172 182 192 268 313 321
233 245 248 236 238 264 247 257 256 256 263 254 235 245 255 260 264 291 295 289 253 274 307 298 297 177 173 168 161 159 156 150 155 161 166 169 176 194 210 231 255 273 290 306
247 243 235 240 234 224 242 241 267 268 263 258 248 249 253 251 262 285 293 305 253 255 278 287 239 212 200 189 174 169 166 162 171 174 186 197 215 231 243 248 257 275 294 307
Height
3017 3021 3023 3024 3034 3047 3053 3059 3063 3065 3071 3074 3075 3079 3084 3088 3090 3094 3097 3100 3104 3107 3109 3111 3115 3116 3119 3121 3124 3128 3132 3134 3135 3138 3141 3143 3144 3146 3147 3149 3150 3150 3150 3152
3014 3012 3020 3035 3042 3047 3052 3058 3062 3066 3069 3072 3075 3075 3079 3083 3084 3087 3093 3096 3099 3101 3103 3105 3106 3109 3112 3115 3118 3122 3125 3128 3130 3131 3132 3137 3140 3141 3141 3141 3143 3144 3145 3144
3011 3013 3024 3031 3040 3045 3048 3051 3057 3064 3066 3070 3072 3072 3073 3076 3080 3081 3085 3091 3092 3094 3095 3097 3097 3101 3105 3108 3111 3114 3117 3120 3123 3125 3126 3126 3129 3133 3135 3137 3139 3139 3138 3139
3011 3017 3023 3030 3036 3043 3046 3051 3056 3061 3063 3065 3068 3069 3064 3068 3072 3075 3079 3082 3086 3087 3090 3091 3094 3096 3099 3101 3104 3107 3110 3113 3116 3118 3119 3118 3120 3121 3126 3129 3130 3132 3133 3133
3004 3013 3022 3030 3035 3040 3043 3049 3053 3055 3061 3061 3064 3069 3060 3063 3065 3067 3072 3075 3077 3080 3082 3086 3088 3090 3093 3094 3096 3098 3101 3104 3106 3109 3110 3112 3112 3113 3113 3115 3118 3120 3123 3122
3003 3014 3025 3029 3033 3038 3043 3048 3052 3055 3059 3060 3058 3062 3058 3057 3059 3063 3066 3067 3071 3075 3076 3080 3082 3084 3086 3088 3090 3092 3094 3096 3098 3100 3102 3103 3105 3106 3106 3106 3107 3110 3111 3111
3010 3017 3022 3029 3033 3038 3041 3039 3046 3054 3057 3055 3053 3058 3054 3055 3056 3059 3060 3063 3066 3070 3072 3076 3078 3080 3082 3084 3086 3087 3089 3091 3092 3093 3094 3095 3096 3098 3099 3099 3100 3101 3102 3102
3012 3022 3024 3026 3030 3033 3040 3039 3043 3044 3049 3048 3049 3050 3050 3053 3054 3056 3058 3059 3064 3066 3070 3072 3074 3076 3078 3080 3082 3083 3084 3086 3087 3087 3088 3089 3090 3091 3092 3092 3092 3093 3094 3094
3013 3019 3022 3024 3026 3032 3036 3039 3044 3045 3042 3045 3046 3047 3048 3050 3051 3052 3055 3058 3060 3064 3067 3070 3071 3073 3074 3076 3078 3078 3079 3081 3082 3082 3083 3083 3085 3086 3086 3086 3086 3086 3086 3085
3012 3017 3022 3024 3028 3032 3033 3038 3043 3041 3043 3040 3040 3040 3038 3043 3045 3049 3052 3055 3058 3062 3064 3066 3068 3069 3070 3071 3072 3073 3073 3074 3074 3075 3076 3077 3077 3078 3078 3078 3079 3078 3077 3077
3013 3017 3025 3027 3028 3029 3032 3032 3036 3040 3038 3038 3040 3037 3036 3039 3041 3045 3050 3052 3056 3059 3062 3063 3064 3066 3066 3066 3066 3066 3066 3066 3066 3067 3067 3069 3068 3068 3068 3069 3070 3070 3068 3070
3016 3017 3022 3026 3027 3028 3030 3032 3034 3035 3037 3037 3038 3039 3035 3038 3041 3045 3047 3051 3054 3057 3058 3060 3061 3061 3061 3061 3060 3060 3059 3059 3059 3058 3060 3059 3059 3060 3061 3061 3061 3061 3061 3062
3017 3020 3024 3027 3030 3028 3029 3031 3032 3034 3036 3036 3039 3039 3038 3038 3040 3043 3047 3050 3052 3054 3055 3056 3056 3056 3056 3055 3053 3053 3052 3052 3052 3053 3052 3053 3053 3054 3054 3054 3054 3054 3054 3054
3018 3019 3020 3023 3023 3024 3025 3027 3030 3032 3035 3035 3035 3036 3038 3038 3041 3043 3045 3048 3049 3050 3051 3051 3051 3050 3050 3049 3047 3047 3047 3047 3047 3047 3047 3047 3047 3048 3048 3048 3048 3048 3048 3047
3018 3019 3020 3021 3022 3022 3022 3024 3026 3028 3032 3034 3034 3034 3035 3037 3039 3043 3044 3045 3046 3047 3047 3046 3045 3044 3043 3043 3042 3041 3042 3043 3043 3043 3042 3042 3043 3043 3044 3044 3043 3042 3041 3041
3018 3019 3020 3021 3021 3021 3021 3021 3022 3025 3028 3031 3033 3033 3035 3037 3039 3041 3041 3043 3043 3043 3043 3042 3041 3039 3038 3038 3037 3037 3038 3039 3039 3038 3039 3039 3039 3039 3040 3039 3039 3037 3037 3037
3018 3019 3020 3021 3020 3019 3019 3017 3018 3020 3023 3027 3029 3033 3034 3036 3037 3038 3038 3039 3039 3040 3039 3038 3037 3034 3033 3034 3033 3033 3033 3034 3034 3034 3034 3034 3035 3035 3036 3036 3034 3034 3034 3034
3017 3019 3020 3020 3020 3020 3016 3016 3016 3018 3020 3022 3025 3029 3032 3031 3033 3034 3035 3035 3035 3035 3034 3033 3032 3030 3029 3028 3027 3027 3028 3030 3030 3030 3030 3031 3030 3031 3032 3031 3030 3030 3031 3030
3016 3018 3019 3020 3019 3018 3015 3015 3016 3016 3018 3018 3021 3024 3026 3028 3030 3031 3032 3031 3032 3031 3029 3027 3026 3024 3023 3023 3023 3023 3024 3025 3025 3026 3026 3026 3027 3027 3027 3027 3028 3028 3028 3028
3014 3016 3019 3019 3019 3016 3015 3014 3015 3016 3018 3016 3019 3022 3024 3026 3027 3029 3029 3028 3028 3026 3024 3022 3020 3018 3017 3017 3018 3019 3020 3021 3022 3022 3023 3024 3025 3025 3025 3026 3027 3028 3027 3028
3014 3015 3016 3017 3017 3015 3014 3014 3015 3017 3021 3017 3019 3021 3023 3024 3026 3025 3025 3025 3024 3022 3020 3018 3016 3014 3013 3014 3015 3016 3017 3018 3020 3020 3021 3023 3023 3024 3025 3026 3027 3028 3028 3029
3012 3013 3014 3015 3015 3014 3012 3013 3015 3015 3015 3016 3018 3019 3020 3022 3022 3022 3021 3021 3020 3019 3017 3014 3011 3010 3010 3012 3013 3013 3014 3016 3018 3019 3020 3022 3023 3024 3025 3027 3028 3028 3028 3028
3011 3011 3011 3012 3010 3010 3010 3010 3011 3013 3014 3015 3017 3018 3018 3019 3019 3019 3018 3018 3017 3016 3014 3012 3009 3008 3009 3010 3010 3011 3012 3014 3015 3016 3019 3022 3023 3024 3025 3027 3028 3028 3028 3028
3007 3007 3008 3009 3008 3008 3009 3009 3010 3011 3013 3014 3015 3016 3016 3017 3017 3016 3014 3014 3014 3013 3012 3011 3009 3008 3008 3009 3009 3011 3012 3013 3014 3016 3019 3021 3023 3024 3026 3026 3027 3027 3027 3027
3005 3005 3005 3006 3006 3006 3007 3007 3007 3009 3010 3011 3012 3013 3014 3014 3014 3014 3013 3012 3012 3012 3011 3010 3008 3008 3009 3010 3011 3012 3012 3012 3015 3017 3020 3021 3023 3024 3024 3025 3026 3026 3026 3026
3001 3001 3003 3004 3004 3004 3002 3003 3005 3005 3006 3007 3008 3009 3010 3010 3010 3011 3010 3010 3009 3009 3009 3008 3009 3009 3010 3011 3011 3011 3012 3013 3016 3017 3019 3021 3022 3023 3024 3024 3024 3024 3024 3023